"read_dt","SO2 (ppb)","flags","PMT voltage (V)","lamp voltage (V)","lamp intensity (Hz)","internal temp (C)","react chamber temp (C)","sample flow (l/min)","pres (mmHg)","SO2 bkg (ppb)","SO2 coefficient"
2015-07-04 00:00:00,1730E-3,5C000000,-0724,0823,12276,029.9,045.5,0.473,732.0,01.19,0.508
2015-07-04 00:01:00,1662E-3,5C000000,-0724,0823,12213,029.9,045.5,0.472,731.9,01.19,0.508
2015-07-04 00:02:00,1603E-3,5C000000,-0724,0823,12169,029.9,045.5,0.472,732.0,01.19,0.508
2015-07-04 00:03:00,1715E-3,5C000000,-0724,0823,12081,029.9,045.5,0.473,732.0,01.19,0.508
2015-07-04 00:04:00,1598E-3,5C000000,-0724,0823,12272,029.9,045.5,0.472,731.9,01.19,0.508
2015-07-04 00:05:00,1719E-3,5C000000,-0724,0824,12245,029.9,045.5,0.473,732.0,01.19,0.508
2015-07-04 00:06:00,1647E-3,5C000000,-0724,0824,12354,029.9,045.5,0.472,731.9,01.19,0.508
2015-07-04 00:07:00,1686E-3,5C000000,-0724,0823,12079,029.9,045.5,0.472,732.0,01.19,0.508
2015-07-04 00:08:00,1820E-3,5C000000,-0724,0823,12303,029.9,045.5,0.473,732.0,01.19,0.508
2015-07-04 00:09:00,1591E-3,5C000000,-0724,0823,12279,029.9,045.5,0.472,732.0,01.19,0.508
2015-07-04 00:10:00,1626E-3,5C000000,-0724,0822,12189,029.9,045.5,0.472,731.9,01.19,0.508
2015-07-04 00:11:00,1710E-3,5C000000,-0724,0822,12324,029.9,045.5,0.472,731.8,01.19,0.508
2015-07-04 00:12:00,1772E-3,5C000000,-0724,0823,12189,029.9,045.5,0.472,731.9,01.19,0.508
2015-07-04 00:13:00,1594E-3,5C000000,-0724,0823,12347,029.9,045.5,0.473,731.9,01.19,0.508
2015-07-04 00:14:00,1722E-3,5C000000,-0724,0823,12210,029.9,045.5,0.472,732.0,01.19,0.508
2015-07-04 00:15:00,1613E-3,5C000000,-0724,0823,12338,029.9,045.5,0.472,731.9,01.19,0.508
2015-07-04 00:16:00,1727E-3,5C000000,-0724,0822,12224,029.9,045.5,0.473,731.9,01.19,0.508
2015-07-04 00:17:00,1659E-3,5C000000,-0724,0823,12195,029.9,045.5,0.472,731.9,01.19,0.508
2015-07-04 00:18:00,1777E-3,5C000000,-0724,0823,12372,029.9,045.5,0.472,731.9,01.19,0.508
2015-07-04 00:19:00,1677E-3,5C000000,-0724,0823,12048,029.9,045.5,0.472,731.9,01.19,0.508
2015-07-04 00:20:00,1617E-3,5C000000,-0724,0823,12233,029.9,045.5,0.472,731.9,01.19,0.508
2015-07-04 00:21:00,1750E-3,5C000000,-0724,0823,12194,029.9,045.5,0.473,732.0,01.19,0.508
2015-07-04 00:22:00,1550E-3,5C000000,-0724,0823,12162,029.9,045.5,0.472,731.9,01.19,0.508
2015-07-04 00:23:00,1725E-3,5C000000,-0724,0823,12269,029.9,045.5,0.472,731.9,01.19,0.508
2015-07-04 00:24:00,1685E-3,5C000000,-0724,0823,12217,029.9,045.5,0.472,731.8,01.19,0.508
2015-07-04 00:25:00,1592E-3,5C000000,-0724,0823,12312,029.9,045.5,0.472,731.9,01.19,0.508
2015-07-04 00:26:00,1647E-3,5C000000,-0724,0824,12317,029.9,045.5,0.473,731.9,01.19,0.508
2015-07-04 00:27:00,1761E-3,5C000000,-0724,0823,12343,029.9,045.5,0.472,731.8,01.19,0.508
2015-07-04 00:28:00,1608E-3,5C000000,-0724,0824,12260,029.9,045.5,0.472,731.9,01.19,0.508
2015-07-04 00:29:00,1678E-3,5C000000,-0724,0822,12316,029.9,045.5,0.473,731.9,01.19,0.508
2015-07-04 00:30:00,1752E-3,5C000000,-0724,0823,12363,029.9,045.5,0.472,731.9,01.19,0.508
2015-07-04 00:31:00,1664E-3,5C000000,-0724,0823,12279,029.9,045.5,0.472,731.9,01.19,0.508
2015-07-04 00:32:00,1611E-3,5C000000,-0724,0824,12223,029.9,045.5,0.472,731.8,01.19,0.508
2015-07-04 00:33:00,1514E-3,5C000000,-0724,0823,12398,029.9,045.5,0.472,731.8,01.19,0.508
2015-07-04 00:34:00,1828E-3,5C000000,-0724,0822,12310,029.9,045.5,0.472,731.8,01.19,0.508
2015-07-04 00:35:00,1649E-3,5C000000,-0724,0823,12173,029.9,045.5,0.472,731.8,01.19,0.508
2015-07-04 00:36:00,1709E-3,5C000000,-0724,0823,12154,029.9,045.5,0.472,731.8,01.19,0.508
2015-07-04 00:37:00,1767E-3,5C000000,-0724,0822,12079,029.9,045.5,0.472,731.9,01.19,0.508
2015-07-04 00:38:00,1574E-3,5C000000,-0724,0823,12164,029.9,045.5,0.472,731.8,01.19,0.508
2015-07-04 00:39:00,1842E-3,5C000000,-0724,0823,12298,029.9,045.5,0.472,731.8,01.19,0.508
2015-07-04 00:40:00,1650E-3,5C000000,-0724,0822,12192,029.9,045.5,0.472,731.8,01.19,0.508
2015-07-04 00:41:00,1640E-3,5C000000,-0724,0822,12226,030.0,045.5,0.472,731.9,01.19,0.508
2015-07-04 00:42:00,1619E-3,5C000000,-0724,0824,12352,030.0,045.5,0.472,731.9,01.19,0.508
2015-07-04 00:43:00,1544E-3,5C000000,-0724,0823,12253,030.0,045.5,0.472,731.9,01.19,0.508
2015-07-04 00:44:00,1695E-3,5C000000,-0724,0823,12319,029.9,045.5,0.472,731.8,01.19,0.508
2015-07-04 00:45:00,1834E-3,5C000000,-0724,0822,12325,029.9,045.5,0.472,731.9,01.19,0.508
2015-07-04 00:46:00,1671E-3,5C000000,-0724,0822,12322,030.0,045.5,0.472,731.9,01.19,0.508
2015-07-04 00:47:00,1618E-3,5C000000,-0724,0823,12312,030.0,045.5,0.472,731.9,01.19,0.508
2015-07-04 00:48:00,1609E-3,5C000000,-0724,0823,12231,030.0,045.5,0.472,731.9,01.19,0.508
2015-07-04 00:49:00,1599E-3,5C000000,-0724,0822,12471,030.0,045.5,0.472,731.8,01.19,0.508
2015-07-04 00:50:00,1761E-3,5C000000,-0724,0823,12118,030.0,045.5,0.472,731.9,01.19,0.508
2015-07-04 00:51:00,1600E-3,5C000000,-0724,0823,12229,030.0,045.5,0.472,731.8,01.19,0.508
2015-07-04 00:52:00,1682E-3,5C000000,-0724,0823,12345,030.0,045.5,0.472,731.9,01.19,0.508
2015-07-04 00:53:00,1673E-3,5C000000,-0724,0824,12320,030.0,045.5,0.472,731.9,01.19,0.508
2015-07-04 00:54:00,1734E-3,5C000000,-0724,0824,12300,030.0,045.5,0.472,731.9,01.19,0.508
2015-07-04 00:55:00,1785E-3,5C000000,-0724,0823,12193,030.0,045.5,0.473,731.9,01.19,0.508
2015-07-04 00:56:00,1610E-3,5C000000,-0724,0824,12211,030.0,045.5,0.472,731.9,01.19,0.508
2015-07-04 00:57:00,1641E-3,5C000000,-0724,0823,12280,030.0,045.5,0.472,731.9,01.19,0.508
2015-07-04 00:58:00,1665E-3,5C000000,-0724,0823,12265,030.0,045.5,0.472,731.7,01.19,0.508
2015-07-04 00:59:00,1781E-3,5C000000,-0724,0823,12277,030.0,045.5,0.472,731.6,01.19,0.508
2015-07-04 01:00:00,1619E-3,5C000000,-0724,0822,12136,030.0,045.5,0.472,731.8,01.19,0.508
2015-07-04 01:01:00,1626E-3,5C000000,-0724,0823,12191,030.0,045.5,0.472,731.7,01.19,0.508
2015-07-04 01:02:00,1500E-3,5C000000,-0724,0823,12233,030.0,045.5,0.472,731.8,01.19,0.508
2015-07-04 01:03:00,1663E-3,5C000000,-0724,0823,12317,030.0,045.5,0.472,731.8,01.19,0.508
2015-07-04 01:04:00,1855E-3,5C000000,-0724,0823,12206,030.0,045.5,0.472,731.8,01.19,0.508
2015-07-04 01:05:00,1742E-3,5C000000,-0724,0823,12177,030.0,045.5,0.472,731.8,01.19,0.508
2015-07-04 01:06:00,1553E-3,5C000000,-0724,0823,12366,030.0,045.5,0.472,731.7,01.19,0.508
2015-07-04 01:07:00,1560E-3,5C000000,-0724,0822,12216,030.0,045.5,0.472,731.6,01.19,0.508
2015-07-04 01:08:00,1672E-3,5C000000,-0724,0824,12244,030.0,045.5,0.472,731.8,01.19,0.508
2015-07-04 01:09:00,1751E-3,5C000000,-0724,0823,12333,030.0,045.5,0.472,731.7,01.19,0.508
2015-07-04 01:10:00,1662E-3,5C000000,-0724,0822,12235,030.0,045.5,0.472,731.8,01.19,0.508
2015-07-04 01:11:00,1592E-3,5C000000,-0724,0823,12142,030.0,045.5,0.472,731.7,01.19,0.508
2015-07-04 01:12:00,1646E-3,5C000000,-0724,0822,12195,030.0,045.5,0.472,731.8,01.19,0.508
2015-07-04 01:13:00,1787E-3,5C000000,-0724,0822,12216,030.0,045.5,0.472,731.7,01.19,0.508
2015-07-04 01:14:00,1751E-3,5C000000,-0724,0823,12280,030.0,045.5,0.472,731.8,01.19,0.508
2015-07-04 01:15:00,1598E-3,5C000000,-0724,0822,12228,030.0,045.5,0.472,731.8,01.19,0.508
2015-07-04 01:16:00,1672E-3,5C000000,-0724,0823,12196,030.0,045.5,0.472,731.8,01.19,0.508
2015-07-04 01:17:00,1771E-3,5C000000,-0724,0824,12257,030.0,045.5,0.472,731.8,01.19,0.508
2015-07-04 01:18:00,1674E-3,5C000000,-0724,0824,12295,030.1,045.5,0.472,731.7,01.19,0.508
2015-07-04 01:19:00,1624E-3,5C000000,-0724,0823,12242,030.0,045.5,0.472,731.7,01.19,0.508
2015-07-04 01:20:00,1695E-3,5C000000,-0724,0822,12225,030.1,045.5,0.472,731.4,01.19,0.508
2015-07-04 01:21:00,1714E-3,5C000000,-0724,0824,12247,030.1,045.5,0.472,731.6,01.19,0.508
2015-07-04 01:22:00,1724E-3,5C000000,-0724,0823,12224,030.1,045.5,0.472,731.5,01.19,0.508
2015-07-04 01:23:00,1686E-3,5C000000,-0724,0823,12134,030.1,045.5,0.472,731.7,01.19,0.508
2015-07-04 01:24:00,1650E-3,5C000000,-0724,0823,12138,030.1,045.5,0.472,731.8,01.19,0.508
2015-07-04 01:25:00,1687E-3,5C000000,-0724,0823,12356,030.1,045.5,0.472,731.7,01.19,0.508
2015-07-04 01:26:00,1753E-3,5C000000,-0724,0823,12222,030.1,045.5,0.472,731.6,01.19,0.508
2015-07-04 01:27:00,1603E-3,5C000000,-0724,0823,12253,030.1,045.5,0.472,731.8,01.19,0.508
2015-07-04 01:28:00,1586E-3,5C000000,-0724,0824,12228,030.1,045.5,0.472,731.8,01.19,0.508
2015-07-04 01:29:00,1585E-3,5C000000,-0724,0823,12473,030.0,045.5,0.472,731.8,01.19,0.508
2015-07-04 01:30:00,1735E-3,5C000000,-0724,0822,12253,030.1,045.5,0.472,731.9,01.19,0.508
2015-07-04 01:31:00,1587E-3,5C000000,-0724,0823,12031,030.0,045.5,0.472,731.9,01.19,0.508
2015-07-04 01:32:00,1632E-3,5C000000,-0724,0824,12237,030.0,045.5,0.472,731.9,01.19,0.508
2015-07-04 01:33:00,1694E-3,5C000000,-0724,0824,12189,030.0,045.5,0.472,732.0,01.19,0.508
2015-07-04 01:34:00,1612E-3,5C000000,-0724,0823,12253,030.0,045.5,0.472,732.0,01.19,0.508
2015-07-04 01:35:00,1678E-3,5C000000,-0724,0823,12092,030.0,045.5,0.472,732.0,01.19,0.508
2015-07-04 01:36:00,1584E-3,5C000000,-0724,0822,12066,030.0,045.5,0.472,731.8,01.19,0.508
2015-07-04 01:37:00,1627E-3,5C000000,-0724,0823,12237,030.0,045.5,0.472,731.9,01.19,0.508
2015-07-04 01:38:00,1758E-3,5C000000,-0724,0823,12164,030.1,045.5,0.472,732.0,01.19,0.508
2015-07-04 01:39:00,1630E-3,5C000000,-0724,0824,12306,030.0,045.5,0.472,731.9,01.19,0.508
2015-07-04 01:40:00,1596E-3,5C000000,-0724,0823,12416,030.1,045.5,0.472,732.0,01.19,0.508
2015-07-04 01:41:00,1611E-3,5C000000,-0724,0823,12296,030.1,045.5,0.472,732.0,01.19,0.508
2015-07-04 01:42:00,1585E-3,5C000000,-0724,0822,12095,030.1,045.5,0.472,732.1,01.19,0.508
2015-07-04 01:43:00,1634E-3,5C000000,-0724,0823,12401,030.1,045.5,0.472,732.1,01.19,0.508
2015-07-04 01:44:00,1544E-3,5C000000,-0724,0823,12284,030.0,045.5,0.472,732.1,01.19,0.508
2015-07-04 01:45:00,1669E-3,5C000000,-0724,0823,12300,030.0,045.5,0.472,732.1,01.19,0.508
2015-07-04 01:46:00,1590E-3,5C000000,-0724,0823,12280,030.1,045.5,0.472,732.1,01.19,0.508
2015-07-04 01:47:00,1623E-3,5C000000,-0724,0823,12176,030.1,045.5,0.472,732.1,01.19,0.508
2015-07-04 01:48:00,1787E-3,5C000000,-0724,0823,12247,030.1,045.5,0.472,732.1,01.19,0.508
2015-07-04 01:49:00,1673E-3,5C000000,-0724,0823,12227,030.0,045.5,0.472,732.1,01.19,0.508
2015-07-04 01:50:00,1570E-3,5C000000,-0724,0823,12414,030.0,045.5,0.472,732.1,01.19,0.508
2015-07-04 01:51:00,1675E-3,5C000000,-0724,0823,12297,030.1,045.5,0.472,732.0,01.19,0.508
2015-07-04 01:52:00,1730E-3,5C000000,-0724,0824,12203,030.1,045.5,0.472,732.1,01.19,0.508
2015-07-04 01:53:00,1620E-3,5C000000,-0724,0824,12269,030.1,045.5,0.472,732.1,01.19,0.508
2015-07-04 01:54:00,1647E-3,5C000000,-0724,0823,12328,030.1,045.5,0.472,732.1,01.19,0.508
2015-07-04 01:55:00,1612E-3,5C000000,-0724,0824,12288,030.1,045.5,0.472,732.1,01.19,0.508
2015-07-04 01:56:00,1746E-3,5C000000,-0724,0824,12259,030.1,045.5,0.472,732.1,01.19,0.508
2015-07-04 01:57:00,1780E-3,5C000000,-0724,0823,12185,030.1,045.5,0.472,732.1,01.19,0.508
2015-07-04 01:58:00,1709E-3,5C000000,-0724,0823,12123,030.1,045.5,0.472,732.1,01.19,0.508
2015-07-04 01:59:00,1655E-3,5C000000,-0724,0823,12178,030.1,045.5,0.472,732.1,01.19,0.508
2015-07-04 02:00:00,1577E-3,5C000000,-0724,0824,12320,030.1,045.5,0.472,732.1,01.19,0.508
2015-07-04 02:01:00,1722E-3,5C000000,-0724,0823,12310,030.1,045.5,0.472,732.1,01.19,0.508
2015-07-04 02:02:00,1649E-3,5C000000,-0724,0824,12070,030.1,045.5,0.472,732.1,01.19,0.508
2015-07-04 02:03:00,1479E-3,5C000000,-0724,0823,12233,030.1,045.5,0.472,732.1,01.19,0.508
2015-07-04 02:04:00,1680E-3,5C000000,-0724,0823,12165,030.1,045.5,0.472,732.1,01.19,0.508
2015-07-04 02:05:00,1747E-3,5C000000,-0724,0823,12146,030.1,045.5,0.472,732.1,01.19,0.508
2015-07-04 02:06:00,1653E-3,5C000000,-0724,0823,12388,030.1,045.5,0.472,732.1,01.19,0.508
2015-07-04 02:07:00,1644E-3,5C000000,-0724,0824,12219,030.1,045.5,0.472,732.1,01.19,0.508
2015-07-04 02:08:00,1706E-3,5C000000,-0724,0824,12314,030.1,045.5,0.472,732.1,01.19,0.508
2015-07-04 02:09:00,1497E-3,5C000000,-0724,0824,12246,030.1,045.5,0.472,732.1,01.19,0.508
2015-07-04 02:10:00,1625E-3,5C000000,-0724,0824,12369,030.2,045.5,0.472,732.1,01.19,0.508
2015-07-04 02:11:00,1658E-3,5C000000,-0724,0823,12302,030.1,045.5,0.472,732.1,01.19,0.508
2015-07-04 02:12:00,1798E-3,5C000000,-0724,0824,12181,030.1,045.5,0.472,732.1,01.19,0.508
2015-07-04 02:13:00,1713E-3,5C000000,-0724,0824,12381,030.1,045.5,0.472,732.1,01.19,0.508
2015-07-04 02:14:00,1733E-3,5C000000,-0724,0823,12305,030.2,045.5,0.472,732.1,01.19,0.508
2015-07-04 02:15:00,1635E-3,5C000000,-0724,0822,12254,030.2,045.5,0.472,732.0,01.19,0.508
2015-07-04 02:16:00,1663E-3,5C000000,-0724,0823,12351,030.2,045.5,0.472,732.1,01.19,0.508
2015-07-04 02:17:00,1699E-3,5C000000,-0724,0823,12420,030.1,045.5,0.472,732.1,01.19,0.508
2015-07-04 02:18:00,1767E-3,5C000000,-0724,0823,12112,030.1,045.5,0.472,732.1,01.19,0.508
2015-07-04 02:19:00,1755E-3,5C000000,-0724,0823,12128,030.2,045.5,0.472,732.0,01.19,0.508
2015-07-04 02:20:00,1669E-3,5C000000,-0724,0823,12290,030.2,045.5,0.472,731.9,01.19,0.508
2015-07-04 02:21:00,1630E-3,5C000000,-0724,0823,12242,030.2,045.5,0.472,731.9,01.19,0.508
2015-07-04 02:22:00,1685E-3,5C000000,-0724,0823,12296,030.2,045.5,0.472,731.9,01.19,0.508
2015-07-04 02:23:00,1638E-3,5C000000,-0724,0823,12230,030.2,045.5,0.472,731.9,01.19,0.508
2015-07-04 02:24:00,1643E-3,5C000000,-0724,0823,12105,030.2,045.5,0.472,731.8,01.19,0.508
2015-07-04 02:25:00,1692E-3,5C000000,-0724,0822,12211,030.2,045.5,0.472,731.8,01.19,0.508
2015-07-04 02:26:00,1640E-3,5C000000,-0724,0823,12163,030.2,045.5,0.472,731.8,01.19,0.508
2015-07-04 02:27:00,1779E-3,5C000000,-0724,0823,12304,030.2,045.5,0.472,731.8,01.19,0.508
2015-07-04 02:28:00,1737E-3,5C000000,-0724,0823,12335,030.2,045.5,0.472,731.9,01.19,0.508
2015-07-04 02:29:00,1641E-3,5C000000,-0724,0824,12302,030.2,045.5,0.472,731.9,01.19,0.508
2015-07-04 02:30:00,1590E-3,5C000000,-0724,0822,12159,030.2,045.5,0.472,731.9,01.19,0.508
2015-07-04 02:31:00,1648E-3,5C000000,-0724,0823,12316,030.2,045.5,0.472,731.9,01.19,0.508
2015-07-04 02:32:00,1530E-3,5C000000,-0724,0822,12298,030.2,045.5,0.472,731.9,01.19,0.508
2015-07-04 02:33:00,1694E-3,5C000000,-0724,0823,12322,030.2,045.5,0.472,731.9,01.19,0.508
2015-07-04 02:34:00,1588E-3,5C000000,-0724,0823,12330,030.2,045.5,0.472,731.7,01.19,0.508
2015-07-04 02:35:00,1677E-3,5C000000,-0724,0822,12154,030.2,045.5,0.472,731.8,01.19,0.508
2015-07-04 02:36:00,1722E-3,5C000000,-0724,0822,12147,030.2,045.5,0.472,731.8,01.19,0.508
2015-07-04 02:37:00,1830E-3,5C000000,-0724,0822,12279,030.2,045.5,0.472,731.9,01.19,0.508
2015-07-04 02:38:00,1700E-3,5C000000,-0724,0824,12400,030.2,045.5,0.472,732.0,01.19,0.508
2015-07-04 02:39:00,1707E-3,5C000000,-0724,0823,12240,030.2,045.5,0.472,732.0,01.19,0.508
2015-07-04 02:40:00,1799E-3,5C000000,-0724,0824,12153,030.2,045.5,0.471,731.9,01.19,0.508
2015-07-04 02:41:00,1769E-3,5C000000,-0724,0823,12440,030.2,045.5,0.472,731.9,01.19,0.508
2015-07-04 02:42:00,1641E-3,5C000000,-0724,0823,12304,030.2,045.5,0.472,731.8,01.19,0.508
2015-07-04 02:43:00,1633E-3,5C000000,-0724,0823,12386,030.2,045.5,0.472,731.9,01.19,0.508
2015-07-04 02:44:00,1606E-3,5C000000,-0724,0823,12238,030.2,045.5,0.472,731.9,01.19,0.508
2015-07-04 02:45:00,1604E-3,5C000000,-0724,0823,12394,030.2,045.5,0.472,731.9,01.19,0.508
2015-07-04 02:46:00,1687E-3,5C000000,-0724,0823,12282,030.2,045.5,0.472,732.0,01.19,0.508
2015-07-04 02:47:00,1635E-3,5C000000,-0724,0823,12239,030.2,045.5,0.472,732.0,01.19,0.508
2015-07-04 02:48:00,1617E-3,5C000000,-0724,0823,12280,030.2,045.5,0.472,731.9,01.19,0.508
2015-07-04 02:49:00,1671E-3,5C000000,-0724,0824,12187,030.2,045.5,0.472,731.9,01.19,0.508
2015-07-04 02:50:00,1656E-3,5C000000,-0724,0824,12193,030.2,045.5,0.472,732.0,01.19,0.508
2015-07-04 02:51:00,1823E-3,5C000000,-0724,0823,12329,030.2,045.5,0.472,732.0,01.19,0.508
2015-07-04 02:52:00,1771E-3,5C000000,-0724,0823,12220,030.2,045.5,0.471,731.9,01.19,0.508
2015-07-04 02:53:00,1727E-3,5C000000,-0724,0823,12283,030.3,045.5,0.472,732.0,01.19,0.508
2015-07-04 02:54:00,1584E-3,5C000000,-0724,0823,12370,030.2,045.5,0.472,732.0,01.19,0.508
2015-07-04 02:55:00,1665E-3,5C000000,-0724,0823,12182,030.2,045.5,0.472,732.0,01.19,0.508
2015-07-04 02:56:00,1686E-3,5C000000,-0724,0823,12222,030.2,045.5,0.472,732.0,01.19,0.508
2015-07-04 02:57:00,1534E-3,5C000000,-0724,0823,12235,030.2,045.5,0.472,732.0,01.19,0.508
2015-07-04 02:58:00,1581E-3,5C000000,-0724,0823,12312,030.2,045.5,0.472,732.0,01.19,0.508
2015-07-04 02:59:00,1544E-3,5C000000,-0724,0823,12322,030.2,045.5,0.472,732.0,01.19,0.508
2015-07-04 03:00:00,1649E-3,5C000000,-0724,0823,12212,030.3,045.5,0.472,731.9,01.19,0.508
2015-07-04 03:01:00,1652E-3,5C000000,-0724,0823,12134,030.3,045.5,0.472,732.0,01.19,0.508
2015-07-04 03:02:00,1555E-3,5C000000,-0724,0823,12101,030.3,045.5,0.472,732.0,01.19,0.508
2015-07-04 03:03:00,1714E-3,5C000000,-0724,0823,12247,030.3,045.5,0.472,732.0,01.19,0.508
2015-07-04 03:04:00,1761E-3,5C000000,-0724,0823,12086,030.3,045.5,0.472,732.0,01.19,0.508
2015-07-04 03:05:00,1679E-3,5C000000,-0724,0823,12152,030.3,045.5,0.472,732.0,01.19,0.508
2015-07-04 03:06:00,1676E-3,5C000000,-0724,0823,12281,030.3,045.5,0.472,731.9,01.19,0.508
2015-07-04 03:07:00,1608E-3,5C000000,-0724,0823,12295,030.3,045.5,0.471,732.0,01.19,0.508
2015-07-04 03:08:00,1693E-3,5C000000,-0724,0823,12147,030.3,045.5,0.472,732.0,01.19,0.508
2015-07-04 03:09:00,1769E-3,5C000000,-0724,0823,12207,030.3,045.5,0.472,732.0,01.19,0.508
2015-07-04 03:10:00,1705E-3,5C000000,-0724,0822,12201,030.3,045.5,0.472,731.9,01.19,0.508
2015-07-04 03:11:00,1706E-3,5C000000,-0724,0822,12314,030.3,045.5,0.472,731.8,01.19,0.508
2015-07-04 03:12:00,1542E-3,5C000000,-0724,0822,12111,030.3,045.5,0.471,731.7,01.19,0.508
2015-07-04 03:13:00,1641E-3,5C000000,-0724,0822,12138,030.3,045.5,0.472,732.0,01.19,0.508
2015-07-04 03:14:00,1648E-3,5C000000,-0724,0823,12144,030.3,045.5,0.472,732.0,01.19,0.508
2015-07-04 03:15:00,1634E-3,5C000000,-0724,0822,11925,030.3,045.5,0.472,732.0,01.19,0.508
2015-07-04 03:16:00,1561E-3,5C000000,-0724,0823,12244,030.3,045.5,0.472,732.1,01.19,0.508
2015-07-04 03:17:00,1760E-3,5C000000,-0724,0823,12348,030.3,045.5,0.471,732.1,01.19,0.508
2015-07-04 03:18:00,1704E-3,5C000000,-0724,0823,12368,030.3,045.5,0.472,732.1,01.19,0.508
2015-07-04 03:19:00,1745E-3,5C000000,-0724,0823,12269,030.3,045.5,0.472,732.1,01.19,0.508
2015-07-04 03:20:00,1668E-3,5C000000,-0724,0823,12222,030.3,045.5,0.472,732.0,01.19,0.508
2015-07-04 03:21:00,1494E-3,5C000000,-0724,0823,12331,030.3,045.5,0.472,732.1,01.19,0.508
2015-07-04 03:22:00,1728E-3,5C000000,-0724,0822,12288,030.3,045.5,0.471,732.2,01.19,0.508
2015-07-04 03:23:00,1682E-3,5C000000,-0724,0823,12226,030.3,045.5,0.472,732.1,01.19,0.508
2015-07-04 03:24:00,1557E-3,5C000000,-0724,0823,12237,030.4,045.5,0.472,732.2,01.19,0.508
2015-07-04 03:25:00,1621E-3,5C000000,-0724,0823,12171,030.3,045.5,0.472,732.1,01.19,0.508
2015-07-04 03:26:00,1611E-3,5C000000,-0724,0823,12131,030.3,045.5,0.472,732.2,01.19,0.508
2015-07-04 03:27:00,1626E-3,5C000000,-0724,0823,12119,030.3,045.5,0.471,732.2,01.19,0.508
2015-07-04 03:28:00,1611E-3,5C000000,-0724,0822,12290,030.4,045.5,0.472,732.2,01.19,0.508
2015-07-04 03:29:00,1794E-3,5C000000,-0724,0822,12170,030.4,045.5,0.472,732.2,01.19,0.508
2015-07-04 03:30:00,1572E-3,5C000000,-0724,0822,12276,030.3,045.5,0.472,732.2,01.19,0.508
2015-07-04 03:31:00,1636E-3,5C000000,-0724,0824,12317,030.4,045.5,0.472,732.1,01.19,0.508
2015-07-04 03:32:00,1719E-3,5C000000,-0724,0823,12361,030.4,045.5,0.471,732.1,01.19,0.508
2015-07-04 03:33:00,1607E-3,5C000000,-0724,0824,12352,030.4,045.5,0.472,732.1,01.19,0.508
2015-07-04 03:34:00,1641E-3,5C000000,-0724,0823,12257,030.4,045.5,0.471,732.2,01.19,0.508
2015-07-04 03:35:00,1735E-3,5C000000,-0724,0823,12318,030.4,045.5,0.472,732.2,01.19,0.508
2015-07-04 03:36:00,1756E-3,5C000000,-0724,0822,12207,030.4,045.5,0.471,732.2,01.19,0.508
2015-07-04 03:37:00,1640E-3,5C000000,-0724,0824,12297,030.4,045.5,0.472,732.2,01.19,0.508
2015-07-04 03:38:00,1680E-3,5C000000,-0724,0823,12398,030.4,045.5,0.472,732.2,01.19,0.508
2015-07-04 03:39:00,1634E-3,5C000000,-0724,0823,12319,030.4,045.5,0.472,732.1,01.19,0.508
2015-07-04 03:40:00,1520E-3,5C000000,-0724,0824,12276,030.4,045.5,0.472,732.1,01.19,0.508
2015-07-04 03:41:00,1653E-3,5C000000,-0724,0824,12032,030.4,045.5,0.471,732.2,01.19,0.508
2015-07-04 03:42:00,1680E-3,5C000000,-0724,0823,12115,030.4,045.5,0.472,732.1,01.19,0.508
2015-07-04 03:43:00,1631E-3,5C000000,-0724,0822,12192,030.4,045.5,0.471,732.2,01.19,0.508
2015-07-04 03:44:00,1834E-3,5C000000,-0724,0823,12296,030.4,045.5,0.472,732.1,01.19,0.508
2015-07-04 03:45:00,1717E-3,5C000000,-0724,0823,12398,030.4,045.5,0.471,732.1,01.19,0.508
2015-07-04 03:46:00,1706E-3,5C000000,-0724,0823,12259,030.4,045.5,0.472,732.1,01.19,0.508
2015-07-04 03:47:00,1770E-3,5C000000,-0724,0823,12344,030.4,045.5,0.472,732.2,01.19,0.508
2015-07-04 03:48:00,1563E-3,5C000000,-0724,0823,12154,030.4,045.5,0.472,732.2,01.19,0.508
2015-07-04 03:49:00,1688E-3,5C000000,-0724,0823,12523,030.3,045.5,0.472,732.2,01.19,0.508
2015-07-04 03:50:00,1725E-3,5C000000,-0724,0824,12256,030.4,045.5,0.471,732.2,01.19,0.508
2015-07-04 03:51:00,1690E-3,5C000000,-0724,0823,12321,030.3,045.5,0.472,732.3,01.19,0.508
2015-07-04 03:52:00,1643E-3,5C000000,-0724,0822,12147,030.3,045.5,0.471,732.2,01.19,0.508
2015-07-04 03:53:00,1743E-3,5C000000,-0724,0823,12220,030.4,045.5,0.472,732.3,01.19,0.508
2015-07-04 03:54:00,1605E-3,5C000000,-0724,0823,12295,030.4,045.5,0.471,732.2,01.19,0.508
2015-07-04 03:55:00,1585E-3,5C000000,-0724,0824,12338,030.4,045.5,0.472,732.3,01.19,0.508
2015-07-04 03:56:00,1643E-3,5C000000,-0724,0823,12327,030.4,045.5,0.472,732.3,01.19,0.508
2015-07-04 03:57:00,1637E-3,5C000000,-0724,0823,12301,030.4,045.5,0.472,732.3,01.19,0.508
2015-07-04 03:58:00,1693E-3,5C000000,-0724,0823,12258,030.3,045.5,0.472,732.2,01.19,0.508
2015-07-04 03:59:00,1647E-3,5C000000,-0724,0823,12418,030.4,045.5,0.471,732.2,01.19,0.508
2015-07-04 04:00:00,1703E-3,5C000000,-0724,0824,12200,030.4,045.5,0.472,732.4,01.19,0.508
2015-07-04 04:01:00,1692E-3,5C000000,-0724,0823,12312,030.4,045.5,0.471,732.3,01.19,0.508
2015-07-04 04:02:00,1648E-3,5C000000,-0724,0823,12241,030.4,045.5,0.472,732.3,01.19,0.508
2015-07-04 04:03:00,1701E-3,5C000000,-0724,0823,12109,030.4,045.5,0.472,732.2,01.19,0.508
2015-07-04 04:04:00,1586E-3,5C000000,-0724,0823,12253,030.4,045.5,0.472,732.2,01.19,0.508
2015-07-04 04:05:00,1749E-3,5C000000,-0724,0824,12211,030.4,045.5,0.472,732.1,01.19,0.508
2015-07-04 04:06:00,1714E-3,5C000000,-0724,0824,12267,030.4,045.5,0.471,732.2,01.19,0.508
2015-07-04 04:07:00,1636E-3,5C000000,-0724,0823,12228,030.4,045.5,0.472,732.1,01.19,0.508
2015-07-04 04:08:00,1750E-3,5C000000,-0724,0823,12299,030.4,045.5,0.471,732.2,01.19,0.508
2015-07-04 04:09:00,1612E-3,5C000000,-0724,0823,12190,030.4,045.5,0.472,732.3,01.19,0.508
2015-07-04 04:10:00,1642E-3,5C000000,-0724,0823,12389,030.4,045.5,0.471,732.2,01.19,0.508
2015-07-04 04:11:00,1688E-3,5C000000,-0724,0823,12323,030.4,045.5,0.472,732.2,01.19,0.508
2015-07-04 04:12:00,1617E-3,5C000000,-0724,0824,12236,030.4,045.5,0.472,732.2,01.19,0.508
2015-07-04 04:13:00,1578E-3,5C000000,-0724,0823,12220,030.4,045.5,0.472,732.3,01.19,0.508
2015-07-04 04:14:00,1623E-3,5C000000,-0724,0823,12368,030.4,045.5,0.472,732.4,01.19,0.508
2015-07-04 04:15:00,1704E-3,5C000000,-0724,0823,12208,030.4,045.5,0.471,732.4,01.19,0.508
2015-07-04 04:16:00,1602E-3,5C000000,-0724,0823,12108,030.4,045.5,0.472,732.3,01.19,0.508
2015-07-04 04:17:00,1695E-3,5C000000,-0724,0823,12117,030.4,045.5,0.471,732.3,01.19,0.508
2015-07-04 04:18:00,1603E-3,5C000000,-0724,0823,12407,030.4,045.5,0.472,732.4,01.19,0.508
2015-07-04 04:19:00,1690E-3,5C000000,-0724,0823,12304,030.4,045.5,0.471,732.4,01.19,0.508
2015-07-04 04:20:00,1705E-3,5C000000,-0724,0823,12069,030.4,045.5,0.472,732.2,01.19,0.508